Date String (YYYY-MM-DD hh:mm:ss) UTC,Instrument flags,absolute air pressure of the measurement (hPa),sample flow rate (lpm),inlet stack bypass flow (lpm),air temperature of the measurement (°C),ambient temperature measured by the external sensor (°C),aerosol sample conditioner tube jacket temperature (°C),OPC LED temperature (°C),internal box temperature (°C),relative humidity of the measurement (%),span deviation,mass concentration of particles derived from Lorenz-Mie calculation of OPC scattering (μg/m³),mass concentration of particles derived from Lorenz-Mie calculation of OPC scattering (μg/m³),mass concentration of particles derived from Lorenz-Mie calculation of OPC scattering (μg/m³)
DateTimeUTC,F1_M11,P_M11,Q1_M11,Q2_M11,T1_M11,T2_M11,T3_M11,T4_M11,T5_M11,U1_M11,ZSPAN_M11,X0_M11,X2_M11,X1_M11
2024-05-28 01:00:00,SystemResetWarning,0832.0,4.99,000.00,030.4,029.9,000.0,038.4,032.1,014.0,0000.0,0014.82,0003.98,0003.19
2024-05-28 01:01:00,SystemResetWarning,0831.9,5.00,000.00,030.2,027.8,000.0,038.5,031.1,014.3,0000.0,0013.36,0003.98,0003.20
2024-05-28 01:02:00,SystemResetWarning,0831.8,5.02,000.00,029.8,026.6,000.0,038.5,030.5,014.6,0000.0,0013.43,0004.00,0003.20
2024-05-28 01:03:00,SystemResetWarning,0831.9,4.99,000.00,029.6,026.9,000.0,038.4,030.5,014.6,0000.0,0013.71,0003.98,0003.21
2024-05-28 01:04:00,SystemResetWarning,0831.9,4.99,000.00,029.6,027.3,000.0,038.3,030.8,014.5,0000.0,0013.53,0004.00,0003.21
2024-05-28 01:05:00,SystemResetWarning,0832.0,5.01,000.00,029.6,027.7,000.0,038.2,031.0,014.5,0000.0,0014.42,0004.04,0003.22
2024-05-28 01:06:00,SystemResetWarning,0832.0,5.00,000.00,029.7,028.1,000.0,038.2,031.2,014.5,0000.0,0014.15,0004.09,0003.24
2024-05-28 01:07:00,SystemResetWarning,0832.0,4.99,000.00,029.7,028.4,000.0,038.1,031.3,014.7,0000.0,0015.04,0004.11,0003.23
2024-05-28 01:08:00,SystemResetWarning,0832.0,5.00,000.00,029.8,028.7,000.0,038.1,031.4,014.5,0000.0,0015.11,0004.20,0003.24
2024-05-28 01:09:00,SystemResetWarning,0832.0,4.99,000.00,029.8,028.9,000.0,038.2,031.5,014.7,0000.0,0015.07,0004.23,0003.25
2024-05-28 01:10:00,SystemResetWarning,0832.0,5.00,000.00,029.9,029.1,000.0,038.2,031.6,014.5,0000.0,0015.17,0004.27,0003.25
2024-05-28 01:11:00,SystemResetWarning,0832.1,5.00,000.00,030.0,029.2,000.0,038.2,031.7,014.3,0000.0,0015.60,0004.30,0003.25
2024-05-28 01:12:00,SystemResetWarning,0832.0,5.00,000.00,030.0,029.4,000.0,038.2,031.8,014.3,0000.0,0015.57,0004.34,0003.25
2024-05-28 01:13:00,SystemResetWarning,0832.0,5.00,000.00,030.1,029.5,000.0,038.2,031.9,014.2,0000.0,0015.42,0004.35,0003.25
2024-05-28 01:14:00,SystemResetWarning,0832.0,4.99,000.00,030.1,029.6,000.0,038.3,031.9,014.1,0000.0,0015.00,0004.40,0003.25
2024-05-28 01:15:00,SystemResetWarning,0832.1,4.99,000.00,030.2,029.7,000.0,038.3,032.0,014.2,0000.0,0014.68,0004.37,0003.24
2024-05-28 01:16:00,SystemResetWarning,0832.1,4.99,000.00,030.3,029.8,000.0,038.3,032.0,014.1,0000.0,0014.16,0004.37,0003.24
2024-05-28 01:17:00,SystemResetWarning,0832.1,5.00,000.00,030.3,029.8,000.0,038.4,032.1,014.1,0000.0,0016.02,0004.38,0003.22
2024-05-28 01:18:00,SystemResetWarning,0832.1,5.01,000.00,030.4,029.9,000.0,038.4,032.1,014.0,0000.0,0015.18,0004.38,0003.23
2024-05-28 01:19:00,SystemResetWarning,0832.1,5.01,000.00,030.4,029.9,000.0,038.5,032.2,013.9,0000.0,0013.82,0004.33,0003.24
2024-05-28 01:20:00,SystemResetWarning,0832.1,4.98,000.00,030.3,028.3,000.0,038.5,031.4,014.1,0000.0,0013.88,0004.32,0003.23
2024-05-28 01:21:00,SystemResetWarning,0832.1,5.02,000.00,029.9,026.7,000.0,038.5,030.6,014.4,0000.0,0014.79,0004.27,0003.23
2024-05-28 01:22:00,SystemResetWarning,0832.1,5.00,000.00,029.7,026.8,000.0,038.5,030.6,014.4,0000.0,0015.11,0004.24,0003.23
2024-05-28 01:23:00,SystemResetWarning,0832.1,5.00,000.00,029.6,027.2,000.0,038.3,030.8,014.4,0000.0,0015.70,0004.22,0003.22
2024-05-28 01:24:00,SystemResetWarning,0832.2,5.01,000.00,029.7,027.6,000.0,038.3,031.0,014.6,0000.0,0016.86,0004.19,0003.22
2024-05-28 01:25:00,SystemResetWarning,0832.2,5.01,000.00,029.7,028.0,000.0,038.2,031.2,014.5,0000.0,0016.57,0004.13,0003.23
2024-05-28 01:26:00,SystemResetWarning,0832.2,5.00,000.00,029.7,028.3,000.0,038.2,031.3,014.4,0000.0,0016.84,0004.16,0003.24
2024-05-28 01:27:00,SystemResetWarning,0832.2,5.00,000.00,029.8,028.6,000.0,038.2,031.4,014.4,0000.0,0017.93,0004.15,0003.25
2024-05-28 01:28:00,SystemResetWarning,0832.2,5.00,000.00,029.8,028.8,000.0,038.2,031.5,014.1,0000.0,0016.11,0004.15,0003.26
2024-05-28 01:29:00,SystemResetWarning,0832.2,4.99,000.00,029.9,029.0,000.0,038.2,031.6,013.9,0000.0,0016.33,0004.15,0003.25
2024-05-28 01:30:00,SystemResetWarning,0832.2,5.00,000.00,029.9,029.2,000.0,038.2,031.7,013.7,0000.0,0016.69,0004.15,0003.23
2024-05-28 01:31:00,SystemResetWarning,0832.2,5.01,000.00,030.0,029.3,000.0,038.2,031.8,013.7,0000.0,0016.20,0004.13,0003.24
2024-05-28 01:32:00,SystemResetWarning,0832.2,5.00,000.00,030.1,029.4,000.0,038.2,031.8,013.8,0000.0,0015.43,0004.09,0003.24
2024-05-28 01:33:00,SystemResetWarning,0832.2,5.00,000.00,030.1,029.5,000.0,038.3,031.9,013.7,0000.0,0015.10,0004.07,0003.23
2024-05-28 01:34:00,SystemResetWarning,0832.3,4.99,000.00,030.2,029.6,000.0,038.3,032.0,014.2,0000.0,0014.94,0004.07,0003.23
2024-05-28 01:35:00,SystemResetWarning,0832.3,5.00,000.00,030.2,029.7,000.0,038.3,032.0,014.0,0000.0,0013.83,0004.10,0003.23
2024-05-28 01:36:00,SystemResetWarning,0832.3,5.00,000.00,030.3,029.8,000.0,038.4,032.1,013.6,0000.0,0014.46,0004.17,0003.22
2024-05-28 01:37:00,SystemResetWarning,0832.3,5.00,000.00,030.4,029.9,000.0,038.4,032.1,013.5,0000.0,0014.22,0004.14,0003.21
2024-05-28 01:38:00,SystemResetWarning,0832.4,5.00,000.00,030.4,029.9,000.0,038.5,032.2,013.5,0000.0,0012.38,0004.12,0003.21
2024-05-28 01:39:00,SystemResetWarning,0832.3,4.99,000.00,030.3,028.7,000.0,038.5,031.6,013.5,0000.0,0012.75,0004.09,0003.21
2024-05-28 01:40:00,SystemResetWarning,0832.3,5.02,000.00,029.9,026.6,000.0,038.6,030.6,013.9,0000.0,0013.04,0004.05,0003.21
2024-05-28 01:41:00,SystemResetWarning,0832.3,5.01,000.00,029.7,026.6,000.0,038.5,030.5,014.0,0000.0,0013.04,0004.03,0003.22
2024-05-28 01:42:00,SystemResetWarning,0832.3,4.99,000.00,029.6,027.0,000.0,038.4,030.7,014.0,0000.0,0013.18,0004.00,0003.22
2024-05-28 01:43:00,SystemResetWarning,0832.4,5.01,000.00,029.6,027.5,000.0,038.3,030.9,014.0,0000.0,0012.89,0004.04,0003.21
2024-05-28 01:44:00,SystemResetWarning,0832.4,4.99,000.00,029.6,027.9,000.0,038.2,031.1,014.1,0000.0,0013.10,0004.06,0003.22
2024-05-28 01:45:00,SystemResetWarning,0832.5,5.00,000.00,029.7,028.2,000.0,038.2,031.2,014.0,0000.0,0013.23,0004.04,0003.23
2024-05-28 01:46:00,SystemResetWarning,0832.5,5.00,000.00,029.7,028.5,000.0,038.2,031.4,013.9,0000.0,0014.14,0004.06,0003.23
2024-05-28 01:47:00,SystemResetWarning,0832.5,5.00,000.00,029.8,028.7,000.0,038.2,031.5,013.8,0000.0,0014.36,0004.01,0003.22
2024-05-28 01:48:00,SystemResetWarning,0832.6,5.01,000.00,029.8,028.9,000.0,038.2,031.6,013.8,0000.0,0014.66,0004.00,0003.22
2024-05-28 01:49:00,SystemResetWarning,0832.6,4.99,000.00,029.9,029.1,000.0,038.2,031.6,013.7,0000.0,0015.19,0003.99,0003.22
2024-05-28 01:50:00,SystemResetWarning,0832.5,4.99,000.00,030.0,029.3,000.0,038.2,031.7,013.6,0000.0,0015.04,0003.98,0003.22
2024-05-28 01:51:00,SystemResetWarning,0832.5,5.00,000.00,030.0,029.4,000.0,038.2,031.8,013.5,0000.0,0015.18,0004.00,0003.22
2024-05-28 01:52:00,SystemResetWarning,0832.5,5.00,000.00,030.1,029.5,000.0,038.3,031.9,013.3,0000.0,0014.88,0004.01,0003.21
2024-05-28 01:53:00,SystemResetWarning,0832.5,5.00,000.00,030.1,029.6,000.0,038.3,031.9,013.4,0000.0,0014.95,0004.06,0003.21
2024-05-28 01:54:00,SystemResetWarning,0832.6,5.01,000.00,030.2,029.7,000.0,038.3,032.0,013.1,0000.0,0016.31,0004.10,0003.21
2024-05-28 01:55:00,SystemResetWarning,0832.6,5.01,000.00,030.3,029.8,000.0,038.3,032.0,013.1,0000.0,0016.06,0004.12,0003.20
2024-05-28 01:56:00,SystemResetWarning,0832.6,5.01,000.00,030.3,029.8,000.0,038.4,032.1,013.0,0000.0,0015.67,0004.13,0003.18
2024-05-28 01:57:00,SystemResetWarning,0832.6,5.01,000.00,030.4,029.9,000.0,038.4,032.1,012.9,0000.0,0014.30,0004.15,0003.18
2024-05-28 01:58:00,SystemResetWarning,0832.7,5.00,000.00,030.4,030.0,000.0,038.5,032.2,012.9,0000.0,0013.50,0004.15,0003.18
2024-05-28 01:59:00,SystemResetWarning,0832.6,4.99,000.00,030.4,029.4,000.0,038.5,031.9,013.0,0000.0,0013.65,0004.14,0003.17
